Regional Weather Roundup
Issued by NWS Charleston, SC

Current Version | Previous Version | Graphics & Text | Print | Product List | Glossary On
Versions: 1 2 3 4 5 6 7 8 9 10 11 12 13 14 15 16 17 18 19 20 21 22 23 24 25 26 27 28 29 30 31 32 33 34 35 36 37 38 39 40 41 42 43 44 45 46 47 48 49 50
000 ASUS42 KCHS 300026 RWRCHS REGIONAL WEATHER ROUNDUP NATIONAL WEATHER SERVICE CHARLESTON SC 800 PM EDT WED JUL 29 2015 NOTE: "FAIR" INDICATES FEW OR NO CLOUDS BELOW 12,000 FEET WITH NO SIGNIFICANT WEATHER AND/OR OBSTRUCTIONS TO VISIBILITY. NOT ALL STATIONS ARE QUALITY CONTROLLED BY THE NATIONAL WEATHER SERVICE. USE DATA WITH CAUTION...ESPECIALLY DEWPOINT OBSERVATIONS. SCZ027-030-031-034>040-042>050-300100- ...SOUTHEAST SOUTH CAROLINA... CITY SKY/WX TMP DP RH WIND PRES REMARKS N CHARLESTON PTCLDY 84 71 65 SE12 29.94R 6HR MIN TEMP: 84; 6HR MAX TEMP: 93; 6HR PCP: TRACE; WATERFRONT PRK N/A 85 78 79 E10 29.91R HX 97 MOUNT PLEASANT FAIR 82 75 78 E5 29.94R JOHNS ISLAND FAIR 82 77 83 E7 29.94R HX 91 PINOPOLIS NOT AVBL MONCKS CORNER FAIR 86 72 62 SE5 29.94R HX 92 SUMMERVILLE FAIR 86 77 74 SE5 29.94R HX 97 BEAUFORT MCAS PTCLDY 85 77 77 SE7 29.94R HX 95 6HR MIN TEMP: 85; 6HR MAX TEMP: 95; BEAUFORT ARPT FAIR 82 77 83 SE5 29.94R HX 91 HILTON HEAD IS MOCLDY 82 79 89 SE3 29.96R HX 93 WALTERBORO MOCLDY 88 75 66 SE9 29.94R HX 97 ALLENDALE FAIR 90 72 55 CALM 29.91R HX 96 ...SOUTHERN MIDLANDS AND PEE DEE... CITY SKY/WX TMP DP RH WIND PRES REMARKS GEORGETOWN NOT AVBL KINGSTREE NOT AVBL ORANGEBURG PTCLDY 91 66 43 SE3 29.92R HX 93 6HR MIN TEMP: 91; 6HR MAX TEMP: 97; BARNWELL FAIR 91 73 55 S5 29.93R HX 100 AIKEN FAIR 88 68 51 CALM 29.98R HX 91 MANNING FAIR 86 68 54 SE3 29.93R COLUMBIA MOCLDY 91 71 51 NW7 29.91R HX 97 6HR MIN TEMP: 91; 6HR MAX TEMP: 99; SUMTER PTCLDY 91 66 43 E7 29.90R HX 94 6HR MIN TEMP: 91; 6HR MAX TEMP: 98; FLORENCE CLEAR 91 66 43 E5 29.92R HX 93 6HR MIN TEMP: 91; 6HR MAX TEMP: 96; MYRTLE BEACH NOT AVBL N MYRTLE BEACH PTCLDY 83 71 67 E10 29.95R 6HR MIN TEMP: 83; 6HR MAX TEMP: 88; $$ GAZ063-065-086>088-099>101-113>116-118-119-134>141-150-300100- ...SOUTHEAST GEORGIA... CITY SKY/WX TMP DP RH WIND PRES REMARKS SAVANNAH ARPT MOCLDY 85 72 65 SE15 29.93R HX 91 6HR MIN TEMP: 85; 6HR MAX TEMP: 95; HUNTER AAF PTCLDY 84 75 73 SE10 29.92R HX 92 6HR MIN TEMP: 84; 6HR MAX TEMP: 92; FORT STEWART MOCLDY 85 73 66 SE8 29.91R HX 92 6HR MIN TEMP: 85; 6HR MAX TEMP: 96; STATESBORO MOCLDY 85 76 74 CALM 29.93R HX 95 SYLVANIA PTCLDY 89 74 60 S3 29.93R HX 98 CLAXTON MOCLDY 88 73 62 SE3 29.93R HX 96 ...CSRA...CENTRAL AND FAR SOUTHEAST GEORGIA... CITY SKY/WX TMP DP RH WIND PRES REMARKS THOMSON PTCLDY 80 79 95 W5 29.99S AUGUSTA-BUSH PTCLDY 90 74 59 W6 29.91R HX 99 6HR MIN TEMP: 82; 6HR MAX TEMP: 94; AUGUSTA-DANIEL PTCLDY 90 72 55 CALM 29.94R HX 97 SWAINSBORO FAIR 86 77 74 CALM 29.94R HX 97 VIDALIA RAIN 86 79 79 CALM 29.93R HX 99 EASTMAN FAIR 85 79 82 NE3 29.95R HX 96 HAZLEHURST FAIR 88 78 71 CALM 29.91S HX 102 ALMA CLOUDY 90 76 63 SE7 29.92R HX 101 6HR MIN TEMP: 83; 6HR MAX TEMP: 94; 6HR PCP: TRACE; WAYCROSS MOCLDY 90 80 71 S8 29.93R HX 107 JESUP FAIR 88 70 55 SE5 29.94R HX 92 BAXLEY CLOUDY 88 73 62 CALM 29.92R HX 96 BRUNSWICK PTCLDY 82 75 78 SE6 29.95S SAINT SIMONS CLEAR 82 75 79 E8 29.95R 6HR MIN TEMP: 82; 6HR MAX TEMP: 89; $$ SCZ027-028-034-036>038-045-046-048>050-GAZ119-141-300100- ...LAKE AND SUPPLEMENTAL COASTAL OBSERVATIONS... STATION/POSITION TIME TEMP WIND PRES WAVE SWELL AIR SEA DIR/SP/G HT/PER HT/PER/DIR (UTC) (F) (DEG/KT/KT) (MB) (FT/S) (FT/S/D) UPR LAKE MARION NOT AVBL WINYAH BAY 2345 82 90/ 12 1013.0S LAKE MURRAY 2300 88 290/ 4/ 7 1012.2F ACE BASIN NERRS 2300 86 80/ 3 1014.0R FORT PULASKI 0000 82 86 N/A SAPELO ISLAND 0000 83 110/ 5 1014.0R $$ ANZ835-935-AMZ111-154-330-350-352-354-370-450-454-472-300100- ...C-MAN AND BUOY OBSERVATIONS... STATION/POSITION TIME TEMP WIND PRES WAVE SWELL AIR SEA DIR/SP/G HT/PER HT/PER/DIR (UTC) (F) (DEG/KT/KT) (MB) (FT/S) (FT/S/D) BUOY 41004 2350 84 85 60/ 12/ 16 1012.5R 3/ 5 2/ 6 BUOY 41008 2350 82 82 100/ 6/ 8 1014.3R 2/ 4 2/ 90/ 5 FOLLY BEACH CMAN 0000 82 90/ 12/ 13 1013.9R CAPERS NEARSHORE 2308 83 100/ 12/ 16 1013.6R FRIPP NEARSHORE 2300 83 100/ 14/ 16 1012.8R STATION/POSITION TIME TEMP WIND PRES WAVE SWELL AIR SEA DIR/SP/G HT/PER HT/PER/DIR (UTC) (F) (DEG/KT/KT) (MB) (FT/S) (FT/S/D) 5E ST. MARYS GA 2321 82 N/A 2/ 4 FRYING PAN BUOY 2350 83 84 40/ 14/ 16 1013.4S 3/ 6 2/120/10 BUOY 41025 2350 82 85 100/ 16/ 19 1014.3F 4/ 6 2/ 90/10 CAPE LOOKOUT NC 0000 81 50/ 14/ 16 1013.9F BUOY 41002 2350 83 82 220/ 14/ 16 1014.9R 5/ 7 3/190/ 7 BUOY 41010 2320 77 84 220/ 23/ 31 1012.7S ST AUGUSTINE FL 0000 81 82 160/ 2/ 3 1015.2R $$

USA.gov is the U.S. government's official web portal to all federal, state and local government web resources and services.